カタログに戻る

ICECUBE-Q

unknown科学HEO
NORAD 59629·PAYLOAD·🇵🇰 Pakistan

打ち上げ May 3, 2024 から Wenchang Space Launch Site

Loading…

次のパス (今後24時間)

TLE

古いSource: Space-Track

元期: May 3, 2024, 16:19 UTC

1 59629U 24082C   24124.68000000 -.00194999  15823-2  00000+0 0  9996
2 59629  23.0390 348.5400 9762994 239.7870   5.9940  0.06350648    05

AllMySatでICECUBE-Qをリアルタイム追跡

Download on the App Store